Theta_e
339 339 340 341 341 341 341 340 339 338 337 337 336 336 336 335 335 335 335 335 333 334 334 334 334 335 336 336 335 335 335 334 334 334 333 333 332 332 333 334 334 334 333 332 332 331 331 330 330 330 331 330 330 329 327 327 326 324 323 322 322 321 320 320 318 317 314 313 313 314 316 318 321 324 326 327 327 326 326 325 324 323 322 321 322
337 338 340 341 341 340 340 338 337 337 336 335 335 335 335 334 335 335 334 333 333 334 335 334 335 336 336 335 335 335 334 334 334 334 333 333 332 333 334 334 333 333 333 333 332 332 331 331 330 330 330 330 329 328 327 326 323 321 320 319 318 317 316 315 314 313 313 312 312 312 313 315 318 324 326 327 328 326 323 320 318 316 313 312 312
336 338 339 340 339 339 338 337 337 336 334 333 334 334 334 334 334 334 332 332 333 335 336 336 336 337 336 335 334 334 334 334 334 333 333 332 333 334 334 334 334 334 333 333 332 331 331 331 331 330 330 330 329 328 326 323 320 318 317 315 314 313 313 313 313 312 312 312 312 311 312 313 317 323 322 320 321 320 315 312 309 307 305 304 304
336 337 339 339 338 337 337 337 337 336 334 333 334 334 334 334 334 334 333 335 336 337 337 337 337 336 336 335 335 333 333 333 333 332 333 333 333 334 334 334 334 333 332 332 330 330 330 330 330 329 329 328 327 325 322 319 317 315 314 313 312 312 312 312 312 311 310 310 308 308 309 310 313 315 312 311 311 309 306 304 303 302 300 300 300
337 337 338 337 337 337 336 337 336 336 335 333 333 334 334 333 334 335 336 337 337 337 336 336 336 336 336 336 335 333 332 332 332 333 332 333 333 334 334 334 332 331 331 330 328 328 327 327 326 326 326 324 322 320 317 316 314 313 312 312 311 311 311 310 309 308 306 305 304 304 306 307 307 305 304 307 306 303 302 301 300 300 300 299 299
338 338 337 337 337 336 336 337 337 336 335 334 333 333 334 333 335 336 336 336 337 336 336 336 335 335 334 334 334 332 331 331 332 333 332 333 334 334 333 332 330 329 328 328 327 326 325 324 324 324 322 320 318 316 314 313 312 312 311 311 311 310 308 306 304 303 303 302 302 302 303 303 303 302 302 303 303 302 301 299 299 299 299 299 299
337 337 336 335 335 335 336 336 336 336 335 334 334 335 335 335 335 335 336 336 336 336 335 335 335 334 333 332 331 331 330 330 331 332 333 333 333 332 330 329 328 326 326 326 325 324 323 323 322 320 318 316 314 313 312 311 311 310 310 309 307 305 303 302 302 302 302 302 302 302 301 302 302 302 300 299 300 301 300 299 299 298 298 298 298
337 336 335 335 335 335 335 336 336 335 335 335 335 336 336 335 335 335 336 336 335 335 334 334 334 333 332 331 331 331 331 330 330 332 333 332 331 330 329 328 327 325 325 324 323 322 321 320 318 316 314 313 312 311 311 310 309 308 306 304 302 302 301 301 301 301 301 301 301 302 301 301 301 300 299 299 299 300 300 300 299 298 298 298 298
337 336 334 335 336 335 335 336 336 335 336 336 336 337 336 335 336 335 335 335 334 334 334 334 334 333 332 332 332 332 332 332 332 332 332 331 330 329 328 327 326 325 324 323 321 319 317 316 314 313 312 312 311 310 309 308 306 304 302 301 301 301 301 301 300 300 300 300 300 300 299 300 299 298 299 299 298 299 299 300 300 299 298 298 297
337 336 334 334 336 336 336 336 337 336 336 336 336 336 336 336 336 335 335 335 333 333 334 334 334 334 333 333 333 333 332 332 331 331 331 330 330 328 327 326 324 323 322 320 318 316 314 313 312 311 311 310 310 308 306 304 302 301 301 301 301 301 301 300 300 299 299 298 298 298 298 298 299 299 298 298 298 298 298 298 298 298 298 297 297
337 336 335 335 335 335 336 336 335 335 336 336 336 335 335 336 335 335 335 334 333 334 334 334 333 333 333 334 333 332 331 331 330 331 330 330 329 327 325 324 322 320 318 316 315 313 312 311 311 310 310 309 307 305 303 301 300 300 300 300 300 300 300 299 299 298 298 297 297 297 297 297 298 298 297 297 297 297 297 297 297 297 297 297 297
337 337 336 336 336 335 334 334 334 334 335 335 335 334 334 335 335 335 335 335 334 334 334 333 333 333 333 333 333 331 331 331 331 331 330 328 326 325 324 322 319 317 315 314 313 311 311 310 310 309 308 306 304 301 300 300 300 300 300 300 300 299 299 298 298 297 297 297 297 296 296 296 297 297 296 296 296 296 296 296 296 297 297 297 296
337 337 337 337 337 336 334 333 333 334 334 335 334 334 335 336 335 335 335 334 334 334 334 334 333 333 333 333 332 332 332 332 331 330 328 326 325 323 322 320 316 314 313 312 311 310 310 309 308 306 305 303 301 300 300 299 299 299 299 299 299 298 298 298 298 297 296 297 296 296 296 296 296 296 296 296 296 296 296 296 296 296 296 296 297
337 336 337 337 337 336 335 333 333 333 334 334 333 334 336 335 335 334 334 333 333 333 334 334 333 333 332 332 332 332 332 331 330 328 326 324 323 321 318 315 313 312 312 311 310 309 308 307 306 303 301 300 299 299 299 299 299 299 299 299 299 298 298 298 298 297 296 296 296 296 296 296 296 296 295 295 296 296 296 296 296 296 296 297 297
336 336 336 337 337 336 335 335 334 333 334 333 333 335 336 334 334 334 333 333 332 332 333 332 332 332 332 332 332 331 330 329 327 326 324 323 321 318 314 312 311 311 311 310 309 308 306 305 303 300 299 299 299 299 299 299 299 298 299 298 298 298 298 298 298 297 296 296 296 296 296 296 296 295 295 295 295 296 296 295 296 296 296 296 297
335 336 337 337 336 336 336 335 334 333 333 333 333 335 335 334 333 333 332 331 331 331 331 332 331 331 332 331 330 330 329 327 326 324 323 322 321 317 312 310 310 310 310 309 307 306 304 302 300 299 299 298 299 299 298 298 298 298 298 298 298 297 297 297 297 296 296 296 296 296 295 295 295 295 295 295 295 295 295 295 295 295 295 296 296
335 336 337 337 336 336 336 334 333 333 333 333 334 335 334 333 333 332 331 330 330 331 331 332 331 331 331 330 329 328 327 325 324 324 322 321 321 319 314 310 309 309 308 307 305 303 302 300 299 299 298 298 298 298 298 298 298 298 298 298 297 297 296 296 297 296 296 295 295 295 295 295 295 295 295 295 295 295 295 295 295 295 295 294 295
335 336 336 337 336 336 336 334 333 333 333 333 333 334 333 333 332 331 331 330 331 332 331 331 331 330 329 328 328 327 325 325 323 322 322 321 320 319 315 310 308 308 306 304 303 301 300 299 298 298 298 298 298 298 298 298 298 298 298 297 297 296 296 296 296 296 295 295 295 295 295 295 295 295 295 295 295 295 295 294 294 294 294 294 294
335 335 336 336 336 335 335 335 334 333 333 333 333 333 333 332 331 330 329 330 331 332 331 330 329 329 328 327 327 326 324 323 322 321 321 320 319 319 316 310 307 306 304 303 301 300 299 298 298 298 298 298 298 298 298 298 298 298 297 297 297 296 296 296 296 295 295 295 294 294 294 295 295 294 294 295 294 294 294 294 294 294 294 294 294
335 335 335 335 335 334 334 335 335 333 332 332 333 333 332 330 330 329 330 331 332 331 330 330 328 328 327 326 325 324 322 322 321 320 320 319 319 318 314 309 306 305 303 301 300 298 298 298 298 298 298 298 297 297 298 297 297 297 297 298 297 296 296 295 295 295 294 294 294 294 295 294 294 294 294 294 294 294 294 294 294 293 293 294 294
335 335 334 334 334 334 334 335 335 333 332 332 332 332 331 330 329 329 330 331 331 330 329 328 327 327 326 325 323 322 321 320 320 319 319 318 318 316 312 307 305 304 301 299 298 298 298 297 298 297 297 297 297 297 297 297 297 297 297 297 297 296 296 295 295 294 294 294 294 294 294 294 294 294 294 294 294 294 294 293 293 293 293 294 294
335 335 334 334 334 334 334 335 334 333 333 332 332 332 331 331 330 330 331 331 330 329 328 327 326 325 324 323 322 321 320 319 319 318 318 317 317 313 308 305 304 302 300 298 297 297 297 297 297 297 297 297 297 297 297 297 297 297 297 297 296 296 296 295 294 294 294 294 294 294 294 294 294 294 294 294 294 294 294 293 293 293 293 293 294
335 335 334 334 335 335 334 334 334 333 332 332 332 332 331 331 331 331 331 330 329 327 327 326 325 323 322 321 320 319 319 318 318 317 317 316 313 308 304 303 302 300 298 297 297 297 297 297 297 297 297 296 296 296 297 297 297 298 298 297 296 296 295 295 294 294 294 294 294 294 294 294 294 294 294 294 294 293 293 293 293 293 293 293 293
334 334 334 334 335 335 334 333 333 332 332 332 332 332 331 330 330 330 330 328 328 327 326 325 323 321 320 319 318 318 317 316 316 315 315 313 309 304 302 301 300 298 298 297 297 297 297 297 297 297 296 296 296 296 296 297 297 298 298 296 296 295 295 295 294 294 294 294 294 293 293 293 293 293 293 293 293 293 293 293 293 293 293 293 293
334 333 334 334 334 334 333 332 332 331 331 331 331 331 331 330 330 330 329 328 327 326 325 323 321 319 318 317 317 316 315 314 313 313 312 309 304 301 300 299 298 297 297 297 297 297 297 297 296 296 296 296 296 296 296 296 297 297 297 296 295 296 296 296 295 295 295 295 295 294 293 293 293 293 293 293 293 293 292 293 292 293 293 293 293
333 333 333 333 333 333 331 332 331 331 331 330 330 331 330 330 330 329 328 327 326 325 323 321 319 318 317 316 315 314 313 312 311 310 308 304 301 300 299 298 298 297 297 297 297 297 296 296 296 296 296 296 296 296 296 296 296 296 296 296 296 296 297 297 296 296 296 296 295 295 293 293 293 293 293 293 293 292 292 292 292 292 292 292 293
333 332 333 332 332 331 331 331 330 330 330 330 330 331 330 329 329 328 327 326 325 324 322 319 318 316 315 315 314 313 312 309 308 306 304 301 300 299 299 298 297 297 297 297 297 296 296 296 296 296 296 296 296 296 296 296 296 296 296 296 296 296 296 297 297 296 296 296 296 295 294 292 293 293 293 293 293 292 292 292 291 291 292 292 292
332 332 332 331 331 330 330 330 330 329 330 330 330 329 329 329 329 328 327 325 324 323 321 318 317 315 315 314 313 312 310 308 305 303 301 299 299 299 298 297 297 296 296 296 296 296 296 296 296 296 296 296 296 296 296 296 295 295 296 296 296 296 296 296 297 297 297 296 296 295 293 292 292 293 293 293 293 292 292 291 291 291 291 292 292
332 331 332 331 330 331 330 330 329 329 329 329 329 328 328 329 329 328 327 325 324 322 320 318 316 315 314 314 312 311 309 306 303 301 300 299 299 298 297 297 296 296 296 296 296 296 296 296 296 296 296 296 296 296 295 295 295 295 295 295 295 296 296 296 297 298 297 297 297 295 293 292 293 293 293 293 292 292 291 291 290 291 291 291 291
332 331 331 331 331 330 330 330 328 328 329 329 328 328 328 329 329 328 326 325 324 322 319 317 316 315 314 313 312 310 307 304 302 300 300 299 298 297 296 296 296 296 296 296 296 296 296 296 296 296 296 296 296 296 295 295 295 295 295 295 295 295 295 295 296 297 298 297 297 295 292 292 293 293 293 293 292 292 291 291 290 291 291 291 291
331 331 331 330 330 330 329 329 328 328 328 328 328 328 328 328 329 327 326 326 324 321 319 317 315 314 313 312 311 309 305 302 300 300 299 299 298 297 296 296 296 296 296 296 296 296 296 296 296 296 296 296 296 295 295 295 295 295 295 295 295 296 296 295 296 296 297 297 296 293 292 293 293 293 293 292 292 291 291 291 291 291 291 291 291
331 331 331 330 329 329 328 328 327 327 327 328 328 328 328 328 328 327 326 325 323 321 318 316 315 314 313 312 310 307 303 300 300 300 299 299 298 297 296 296 296 296 295 296 296 296 296 296 296 296 296 296 295 295 295 295 295 295 295 295 295 296 296 296 295 295 296 296 294 292 292 293 293 293 292 292 291 291 291 291 291 291 291 292 292
331 330 330 330 329 329 328 328 327 327 327 328 328 328 328 328 328 327 326 325 322 321 319 316 314 313 312 311 309 306 302 300 300 300 299 299 298 297 296 296 295 295 295 296 296 296 296 296 296 296 296 295 295 295 295 295 295 295 295 295 295 295 295 296 296 295 295 295 294 292 293 293 293 292 292 292 291 291 291 291 292 292 292 292 292
331 330 330 329 329 328 328 327 327 327 327 327 328 328 328 328 328 327 327 325 322 321 319 316 314 313 312 310 307 304 301 300 300 300 299 298 297 297 296 296 295 295 295 296 296 296 296 296 296 295 295 295 295 295 295 295 295 294 295 294 294 295 295 295 296 295 294 294 294 293 293 293 293 292 292 291 291 291 291 292 292 292 292 292 292
330 330 330 329 328 328 327 326 327 327 327 327 327 328 327 327 327 327 327 325 322 321 319 316 313 312 311 309 306 302 300 300 300 300 299 298 297 297 296 296 296 295 295 296 296 296 295 296 295 295 295 295 295 295 295 295 295 295 294 294 294 295 295 295 295 295 294 294 293 292 292 292 292 292 291 291 291 291 291 291 291 292 292 292 292
330 330 329 329 328 328 327 327 327 327 327 327 327 327 326 325 325 326 326 324 322 320 318 316 313 312 310 307 304 302 300 300 299 300 299 298 297 296 296 297 296 295 295 295 295 295 295 295 295 295 295 295 295 295 295 295 295 294 294 294 294 294 294 295 295 294 294 293 293 292 292 292 292 292 291 291 291 291 291 291 291 292 292 292 292
330 330 329 329 328 328 327 327 327 326 326 326 326 326 325 324 324 324 325 323 321 319 318 316 314 312 310 306 303 301 300 299 299 299 299 297 297 297 297 297 296 295 295 295 295 295 295 295 295 295 295 295 295 295 295 295 294 294 294 294 294 294 294 294 294 294 293 293 293 292 292 292 291 291 291 291 291 291 291 291 291 291 292 292 292
330 330 329 328 328 327 327 327 326 326 326 326 326 325 325 324 324 324 323 322 321 319 318 316 314 312 310 306 302 301 300 299 299 299 298 297 297 297 296 296 296 295 295 295 295 295 295 294 294 294 294 295 295 295 295 294 294 295 294 294 294 293 294 293 293 293 293 293 292 292 292 292 291 291 291 291 291 291 291 291 291 291 291 291 291
330 330 329 328 328 327 327 326 326 326 325 325 326 325 324 324 324 324 322 321 321 319 318 316 313 312 310 306 302 300 299 299 299 299 298 297 296 296 296 296 296 295 294 295 295 295 294 294 294 294 294 294 294 294 294 294 294 294 294 294 294 293 293 293 293 293 293 292 292 292 291 291 291 291 290 290 291 291 291 291 291 291 291 291 291
330 329 329 328 328 327 327 326 325 325 325 325 325 324 324 324 324 323 321 320 320 319 317 314 313 312 310 306 302 300 299 298 299 298 298 296 295 295 295 295 295 295 294 294 294 294 294 294 294 294 294 294 294 294 294 294 294 294 294 294 294 294 293 293 293 293 292 292 292 292 292 292 291 291 291 290 291 291 291 291 290 291 291 291 291
330 330 329 328 328 327 327 326 326 325 324 324 324 324 324 324 322 321 320 320 319 317 315 313 312 312 310 306 302 300 299 299 299 298 297 296 295 295 295 294 295 295 294 294 294 294 293 293 293 294 294 294 294 294 294 294 294 294 294 294 294 294 293 294 293 293 292 292 292 292 292 292 292 291 291 291 291 291 291 290 290 290 290 291 291
330 330 329 329 328 327 326 326 325 325 324 324 324 323 324 324 322 321 321 319 317 315 314 313 312 311 309 305 302 300 299 299 299 298 298 296 295 295 294 294 294 294 294 294 294 293 293 293 293 294 294 294 294 294 294 294 294 294 294 294 294 293 294 294 293 293 293 293 293 292 292 292 292 292 291 291 291 291 291 291 290 290 290 290 291
330 329 329 328 328 327 326 325 325 324 323 324 323 323 323 323 323 322 320 318 316 315 314 313 312 311 308 305 302 300 299 299 299 298 297 296 294 294 294 293 294 294 294 293 294 294 294 294 294 294 294 294 294 294 294 294 294 294 294 294 294 293 294 294 294 293 293 293 293 293 293 293 293 292 292 292 291 292 291 291 291 291 291 291 291
330 330 329 328 327 327 326 325 324 323 323 323 323 323 323 323 322 321 319 316 315 315 314 313 312 310 307 304 302 300 299 299 299 298 296 295 294 294 294 293 293 294 293 293 294 294 294 294 294 294 294 294 294 294 294 294 294 294 294 294 294 294 294 294 294 294 294 294 293 293 293 293 293 293 293 292 292 292 292 292 292 292 291 291 291
330 330 329 328 327 326 325 324 324 323 322 322 322 322 322 322 322 320 317 316 315 314 314 313 312 310 307 304 302 301 300 299 299 298 296 294 294 294 293 293 293 293 293 294 294 295 295 296 295 295 295 294 294 294 294 294 294 294 294 294 294 294 294 294 294 294 294 294 294 294 294 294 293 293 293 293 293 293 292 292 293 292 292 292 291
330 329 328 327 326 326 325 324 323 322 321 321 322 322 322 322 322 320 318 316 315 315 314 313 311 309 307 304 302 301 301 300 299 297 295 294 294 294 293 293 293 293 294 294 295 296 297 297 297 296 296 295 294 294 294 294 293 294 294 294 294 294 294 294 294 294 294 294 294 294 294 294 294 294 294 294 293 293 293 293 293 293 293 293 292
330 329 328 327 326 325 325 324 323 321 321 320 321 321 320 321 321 320 318 316 315 314 314 312 310 308 306 304 302 301 301 300 299 297 295 295 295 294 293 293 294 294 295 295 296 297 298 298 298 298 297 296 295 294 294 294 293 294 294 293 294 294 294 294 294 294 294 294 294 294 294 294 294 294 294 294 294 294 293 293 293 293 293 293 293
329 329 328 327 326 325 324 324 322 322 321 320 320 320 319 318 319 318 316 315 314 314 314 312 309 308 306 303 302 301 301 301 300 298 297 296 296 295 294 294 294 294 295 296 297 298 298 298 298 298 298 297 296 295 294 294 294 293 293 293 293 294 294 295 294 294 295 295 295 295 294 294 294 294 294 294 294 294 294 294 294 293 294 294 293
329 328 327 327 326 325 325 324 323 322 321 320 320 320 318 317 317 317 315 314 314 314 313 311 309 308 305 303 302 302 301 301 300 299 298 298 297 295 295 296 296 296 296 296 297 298 298 298 298 298 298 297 296 296 295 294 294 293 293 293 293 294 294 295 295 295 295 295 295 295 295 295 295 295 295 295 295 295 294 294 294 294 294 294 294
328 327 327 326 325 325 325 324 323 322 321 321 320 319 318 317 317 316 315 314 314 314 312 310 309 308 305 303 302 302 302 301 300 299 299 299 298 297 298 299 299 298 298 298 298 299 299 298 298 298 298 297 297 296 295 294 294 293 293 293 293 293 294 295 295 295 295 295 295 295 295 295 295 295 295 295 295 295 295 295 294 294 294 294 294
327 327 326 325 325 324 324 323 323 322 321 321 320 319 318 318 317 316 314 314 314 314 312 310 309 307 304 303 303 303 302 302 300 300 300 300 299 298 300 300 300 300 299 299 299 300 299 299 299 299 298 298 297 297 296 295 294 293 293 293 293 293 294 295 295 295 295 295 295 295 295 295 295 295 295 295 295 295 295 295 295 294 294 294 294
Wind_Speed
27 28 28 28 30 30 30 28 27 26 25 23 22 24 24 24 25 25 24 24 24 22 19 19 20 20 19 19 19 19 19 19 18 15 14 12 11 10 10 9 8 8 8 8 8 8 8 9 9 10 11 12 13 13 13 14 15 15 14 13 13 13 14 14 13 13 12 9 7 8 9 9 11 12 11 10 9 10 11 13 14 15 16 16 17
26 29 30 31 32 32 30 29 28 27 25 22 22 24 25 25 25 24 24 24 24 22 20 20 21 20 20 21 21 20 20 19 18 16 14 13 12 11 10 9 8 9 9 9 9 10 10 10 10 11 11 13 14 14 15 15 15 14 13 12 12 13 13 13 13 13 13 12 10 9 8 9 10 11 11 11 11 12 14 16 17 17 18 18 18
27 29 33 35 34 33 31 30 29 27 23 21 23 24 25 26 24 23 23 24 24 21 20 21 21 20 21 22 22 20 20 19 17 15 13 13 13 12 11 10 9 9 10 10 11 11 11 11 11 11 12 13 14 15 15 14 12 11 11 12 12 13 14 15 16 15 15 15 14 11 9 9 9 10 10 11 12 13 15 16 16 16 17 17 16
30 31 34 36 35 33 33 31 29 28 24 22 24 25 25 26 24 23 23 22 22 20 20 21 22 22 22 22 21 20 19 18 16 14 14 15 14 13 12 11 11 10 11 12 12 12 12 11 11 11 11 12 13 13 12 11 10 10 11 12 12 13 14 16 16 16 16 15 13 10 11 8 5 7 9 10 10 11 12 13 14 15 15 14 14
34 34 34 36 36 34 33 32 30 30 26 22 24 26 26 26 24 22 22 21 21 20 21 22 23 23 23 23 22 21 19 16 15 15 16 16 15 13 13 12 12 12 13 13 13 12 11 11 10 10 9 10 10 10 10 10 10 11 11 12 12 13 14 15 15 16 15 13 11 9 8 5 6 12 12 7 6 8 10 12 13 14 15 15 15
37 37 36 36 36 35 33 32 31 32 28 24 25 26 25 25 23 22 22 22 22 22 21 22 24 24 24 24 23 22 19 16 15 16 16 15 14 13 13 13 13 13 13 13 12 11 11 10 8 8 7 7 8 9 10 10 10 11 11 12 12 13 13 13 13 13 12 11 10 9 7 6 10 15 13 10 9 7 8 12 13 14 15 14 15
35 35 35 36 35 35 33 32 33 33 29 25 26 26 25 24 23 23 23 23 23 23 22 23 23 23 22 22 21 19 17 15 16 17 15 14 13 13 12 12 11 11 11 10 10 9 9 7 6 5 6 6 7 9 9 10 10 11 11 11 11 11 10 10 9 9 9 9 9 9 9 10 12 13 13 16 15 11 11 12 14 17 17 16 17
35 35 35 36 35 34 33 32 32 32 29 27 27 26 25 23 23 24 23 23 24 24 23 23 23 22 21 20 18 17 15 15 16 16 15 14 13 12 11 9 8 9 9 8 7 6 5 4 4 4 6 7 8 9 9 10 10 10 10 10 9 9 8 8 7 7 7 7 8 8 8 9 10 11 12 14 16 18 18 15 16 17 17 18 20
35 37 37 37 36 34 32 31 31 31 29 27 27 25 24 23 24 24 23 24 24 24 23 22 21 20 20 19 17 17 16 16 16 15 14 13 12 11 11 9 7 7 7 6 4 3 3 3 3 4 6 7 8 9 9 9 9 9 9 8 8 8 7 7 7 7 7 7 8 8 7 6 6 7 9 11 14 18 20 22 23 21 19 20 21
36 37 37 36 36 34 33 32 31 31 29 27 27 25 24 24 24 24 24 24 24 23 23 22 21 20 18 17 17 17 17 16 16 14 13 13 12 12 11 9 6 6 6 4 3 2 2 2 3 4 5 6 7 8 8 8 8 8 7 7 7 7 7 8 8 8 9 9 9 9 8 8 8 8 10 13 15 16 18 22 25 25 24 23 22
36 35 34 33 34 35 34 32 31 30 29 27 27 26 24 24 25 24 24 24 24 23 23 22 21 19 17 17 17 17 16 15 14 13 13 13 12 12 11 8 6 5 5 4 4 3 2 3 4 4 5 6 6 6 6 6 7 6 6 6 7 7 8 9 9 9 10 10 11 11 12 12 12 13 15 16 18 19 20 22 24 24 25 24 23
36 35 32 32 33 34 33 33 32 30 29 27 27 26 25 25 25 25 25 25 24 23 23 21 19 18 17 17 17 15 14 14 13 13 14 13 12 11 10 8 7 6 6 5 4 3 3 3 4 4 5 5 5 5 5 5 5 5 5 6 6 7 8 9 9 9 10 10 11 12 12 13 13 14 15 16 18 19 20 21 22 24 24 24 24
35 36 32 32 35 34 33 34 33 30 29 28 28 27 26 26 26 26 25 25 23 22 22 21 19 18 18 17 16 15 14 14 15 14 14 12 11 10 9 8 8 7 7 6 5 4 3 4 4 4 4 5 4 4 4 4 4 4 5 6 6 7 8 8 8 9 9 9 11 11 11 12 13 14 14 15 16 17 19 20 21 22 23 23 23
33 36 35 34 36 35 33 33 32 30 30 29 28 27 26 26 26 26 26 26 24 23 23 22 20 19 17 17 16 16 17 17 16 14 12 10 10 9 7 8 8 8 7 6 5 4 4 3 3 3 3 3 3 3 3 3 4 4 5 5 5 7 8 8 8 8 8 9 10 10 11 12 13 14 14 16 17 18 20 22 23 23 23 23 23
33 35 36 36 36 35 33 31 31 32 31 29 28 27 27 27 27 27 28 27 26 25 24 22 20 19 18 18 18 19 18 17 15 12 11 9 8 6 7 8 9 8 7 6 5 5 4 3 3 3 2 2 1 2 2 3 4 4 5 5 6 7 8 8 8 7 7 9 9 10 11 12 13 14 15 16 17 19 20 21 23 25 25 26 25
35 34 35 37 36 35 33 31 31 32 31 29 29 29 29 28 28 28 28 27 25 24 22 21 21 20 20 20 20 19 18 16 14 12 11 9 6 5 7 9 9 8 7 7 6 5 4 3 2 2 1 1 0 1 2 3 3 4 5 5 6 6 7 7 7 7 8 9 9 10 10 11 13 13 14 16 17 18 19 20 22 23 25 26 27
36 35 35 37 36 35 33 31 31 32 30 28 29 30 31 30 30 28 26 25 24 23 22 22 22 22 21 21 20 18 17 15 14 12 12 10 7 6 8 10 10 9 8 7 6 5 4 3 2 2 2 1 0 0 1 2 3 4 5 5 5 6 6 6 7 8 8 9 9 9 10 11 12 13 14 15 16 18 19 20 21 22 22 23 25
34 34 35 36 37 35 34 32 31 31 29 28 29 30 31 30 29 27 24 23 23 23 23 23 23 22 21 20 19 18 16 15 14 13 12 11 9 8 9 11 11 10 8 7 5 5 4 3 2 2 2 2 1 1 1 1 2 3 4 4 5 5 5 6 8 8 9 8 8 8 9 10 12 13 14 15 16 18 19 21 21 21 20 20 21
32 34 35 36 37 35 34 34 32 30 29 29 30 31 30 28 26 24 22 22 22 23 23 22 21 20 19 19 18 17 16 15 15 14 13 12 11 10 10 12 12 9 8 6 5 4 4 3 3 2 2 2 2 1 0 1 2 2 3 4 5 5 5 7 9 9 8 8 8 8 9 10 11 13 14 15 17 18 20 20 20 20 19 19 19
34 37 36 36 36 34 34 36 35 32 30 31 32 31 29 27 25 24 23 23 23 22 22 20 20 19 18 18 17 17 16 16 15 14 13 13 12 11 11 12 11 9 8 6 5 4 4 3 3 3 3 3 2 1 1 1 1 1 3 4 5 5 6 8 9 9 8 8 8 9 9 11 12 13 14 15 16 18 19 20 20 19 18 18 19
35 39 38 36 35 34 35 36 35 33 31 32 33 32 29 27 25 24 23 24 24 22 21 20 19 18 18 18 18 17 17 17 16 15 14 13 13 12 13 13 11 9 7 6 5 4 4 5 5 4 4 3 2 2 2 1 0 1 3 4 5 5 7 8 9 9 9 9 9 10 11 12 13 14 15 15 16 18 20 21 21 20 19 17 20
35 39 39 37 37 37 37 37 35 33 33 34 33 31 29 28 26 25 25 25 24 22 21 20 19 19 19 18 18 18 18 17 16 15 15 15 14 14 14 13 11 9 7 6 5 5 6 6 6 5 5 4 3 3 2 1 1 2 3 4 5 5 6 8 9 10 11 11 11 11 12 13 14 14 15 16 17 19 21 22 22 21 21 19 19
35 39 40 40 40 38 37 37 35 34 35 37 36 33 30 29 27 26 26 25 23 21 20 20 20 20 19 19 19 18 18 17 17 17 16 15 15 15 14 12 10 8 7 7 7 7 7 7 7 6 5 5 4 3 3 2 1 2 3 4 4 5 6 7 9 10 11 12 12 13 13 14 14 14 15 17 19 21 22 22 22 22 22 21 20
34 37 38 40 41 37 36 36 35 34 36 38 38 36 32 29 27 27 27 25 23 21 21 20 20 19 19 18 18 18 18 17 17 17 16 16 16 16 14 12 9 7 7 8 9 9 9 8 7 6 6 5 4 3 3 2 1 2 3 4 4 5 6 6 8 9 11 12 14 14 14 14 14 15 17 18 20 21 22 23 23 22 22 23 22
34 35 36 38 38 38 39 38 36 36 38 38 37 36 34 31 30 30 28 25 23 22 21 21 20 19 19 18 18 18 18 17 17 17 16 17 17 16 14 11 8 7 8 10 10 10 9 8 7 6 6 5 4 4 3 2 1 2 3 4 4 4 5 5 6 9 11 13 14 15 15 15 15 16 18 20 21 22 23 24 24 24 24 24 24
34 35 36 38 38 39 41 39 38 38 40 39 36 35 34 33 31 29 26 25 24 23 21 20 19 19 18 18 18 17 17 17 17 17 17 18 17 15 13 10 8 8 10 11 11 10 10 8 7 7 6 5 4 4 2 1 1 1 3 4 3 4 5 5 5 8 11 12 14 15 15 15 16 17 19 21 22 23 24 24 25 26 26 26 26
36 36 37 39 40 41 42 40 39 38 39 39 37 37 36 33 30 28 26 24 23 22 20 19 19 18 18 18 17 16 16 17 17 18 18 17 16 14 12 10 10 10 11 11 11 10 10 8 8 7 6 5 4 3 2 2 1 2 3 3 3 4 5 5 5 7 9 11 13 15 16 16 17 19 20 21 22 23 24 25 26 26 26 26 27
36 37 38 40 41 41 42 41 40 38 39 40 39 38 35 32 29 28 26 24 22 20 20 19 19 18 18 17 16 15 16 17 18 18 18 17 16 14 12 11 11 11 12 11 10 10 9 9 8 7 6 5 4 3 3 2 1 2 2 2 3 3 4 5 6 6 8 10 12 14 15 16 17 18 19 20 21 23 25 26 26 26 26 27 28
37 39 41 41 41 41 41 40 40 41 41 41 40 38 35 31 29 27 26 24 22 20 20 20 20 19 18 16 16 16 17 19 19 19 18 17 16 14 12 11 11 12 12 11 10 10 9 8 8 7 6 5 4 3 3 2 1 2 2 1 2 3 4 5 5 5 7 9 11 13 14 15 16 17 17 19 20 22 24 26 26 26 27 28 29
40 42 43 43 42 41 41 40 41 43 43 43 42 39 36 32 29 29 27 25 23 21 20 21 21 19 18 16 17 18 20 20 20 19 19 18 16 13 12 11 11 12 11 11 11 10 9 8 7 7 6 5 4 4 3 2 2 1 1 1 2 3 5 5 4 4 5 7 10 12 13 13 14 15 17 19 20 21 23 24 25 26 27 28 30
40 41 41 41 40 40 40 41 43 43 43 43 42 39 36 32 30 31 29 26 23 22 21 22 21 20 18 18 18 20 21 21 21 20 19 17 15 13 12 12 13 12 12 11 11 10 10 9 8 7 6 5 5 4 3 3 2 2 1 1 2 3 4 5 4 3 4 6 8 10 10 11 13 15 17 19 20 21 23 24 24 25 26 27 29
39 40 40 40 40 41 42 43 43 43 43 42 41 40 36 32 31 32 29 26 24 23 22 22 21 20 20 19 20 22 23 22 21 20 18 16 15 13 13 13 13 13 12 11 11 11 10 9 8 7 6 5 5 4 4 3 2 2 1 1 1 2 3 4 4 3 4 6 8 8 9 10 12 15 18 20 21 21 23 24 25 25 25 26 27
41 41 42 42 43 43 44 44 44 43 43 42 40 40 36 32 31 31 28 26 24 24 23 23 22 22 21 21 22 24 24 23 22 20 18 17 15 14 13 13 14 13 12 12 11 11 10 9 8 7 6 6 5 4 4 3 3 2 2 1 1 2 2 3 4 4 5 8 9 8 8 9 11 15 18 20 21 22 23 24 25 26 26 26 26
41 42 43 43 42 42 42 43 44 43 43 41 40 39 36 33 32 31 28 27 26 26 26 24 23 23 22 22 24 25 24 23 22 21 19 17 16 15 14 14 14 13 12 12 12 11 10 9 8 7 6 6 5 5 4 4 3 2 2 1 1 1 2 3 4 5 6 8 9 8 9 10 12 15 19 20 21 23 24 26 26 27 27 28 28
39 40 41 40 40 41 41 42 43 42 42 41 40 39 37 35 34 32 30 30 30 29 28 26 24 24 24 25 26 26 25 24 23 21 20 18 17 16 15 14 14 13 12 12 11 11 10 10 9 8 7 6 6 6 5 4 4 3 2 1 0 1 2 3 4 5 7 8 7 7 8 10 12 15 18 20 22 24 25 27 27 28 29 29 29
43 43 43 43 43 44 44 44 44 42 41 40 39 39 38 37 35 33 32 32 32 31 29 27 25 25 26 28 28 27 26 25 24 23 21 19 18 17 15 14 14 14 13 12 12 11 11 10 9 9 8 7 7 6 6 5 4 3 3 2 0 1 2 3 4 5 6 7 6 6 8 10 12 15 18 19 22 24 26 27 28 29 30 30 30
44 44 44 45 44 44 44 44 43 42 41 40 39 39 38 38 36 34 34 34 33 32 30 28 26 26 27 29 29 28 26 26 25 24 22 20 19 18 16 15 15 15 13 12 12 12 11 11 10 10 9 8 8 7 6 6 5 4 3 2 1 1 2 3 3 4 5 5 4 5 7 9 12 15 17 20 22 24 25 27 29 30 31 31 31
41 41 41 41 41 41 41 42 42 42 41 40 39 39 39 39 38 36 35 34 35 34 32 30 28 27 27 29 29 28 27 26 25 24 22 21 19 18 17 16 15 15 14 13 13 13 13 12 11 10 9 8 8 8 7 6 5 5 3 3 2 0 1 2 2 3 3 2 3 5 7 9 12 15 17 20 22 24 26 27 29 30 31 32 33
39 40 40 41 41 41 40 40 42 43 42 41 40 38 39 39 38 37 36 36 36 36 33 31 29 26 27 29 29 28 27 27 26 24 22 20 19 18 17 17 16 15 15 14 14 14 14 13 12 11 10 9 8 8 8 7 6 5 4 3 2 2 1 0 0 0 1 1 2 4 6 9 12 15 17 19 22 24 26 27 28 30 31 33 34
38 39 39 40 41 41 41 41 42 43 42 42 41 39 38 39 39 40 39 38 37 36 34 31 28 26 27 29 30 28 28 27 25 24 22 20 19 19 18 18 17 17 17 16 15 14 14 14 13 12 12 11 10 9 8 7 5 4 4 3 3 3 3 2 1 1 1 0 1 4 7 9 12 14 17 19 21 23 25 26 27 29 30 32 33
38 38 38 39 40 41 41 41 42 43 43 43 42 41 39 40 41 40 38 36 36 36 33 30 28 26 27 29 30 29 28 26 25 23 22 20 20 19 19 19 19 19 19 18 17 16 15 14 14 14 13 12 11 10 9 7 5 4 3 4 4 4 3 2 2 2 1 0 2 5 7 10 12 14 16 18 20 22 24 25 26 27 28 29 31
37 37 39 40 40 40 40 40 41 43 43 43 43 42 40 39 40 38 37 38 37 34 31 29 28 26 27 29 30 29 28 26 25 23 22 21 21 20 20 20 21 21 21 19 18 18 17 16 15 15 14 13 12 10 9 8 6 5 4 4 4 3 2 1 1 1 1 1 3 6 8 10 12 14 15 17 20 21 22 24 25 26 26 27 29
37 37 39 39 39 39 40 40 41 42 43 43 43 43 40 38 36 37 39 39 36 33 31 30 28 27 28 29 31 30 28 26 25 24 23 22 22 22 21 22 23 24 23 21 20 19 18 17 16 16 15 14 12 10 9 8 6 5 4 4 3 2 1 1 1 0 1 2 4 6 8 10 11 13 15 17 19 20 22 23 24 25 26 27 29
38 38 38 39 39 39 39 40 41 42 43 42 42 41 41 37 33 34 38 38 34 33 32 29 28 28 28 29 31 31 29 27 25 24 24 24 23 23 23 24 25 26 25 23 22 20 19 18 17 15 14 13 12 10 8 7 6 5 4 3 3 1 1 0 0 1 2 3 4 6 8 9 11 13 14 16 18 19 21 22 23 24 25 27 29
37 37 37 38 38 38 38 39 41 41 42 42 40 40 41 38 33 34 37 37 35 35 32 28 29 29 28 30 32 32 29 27 25 25 25 25 25 25 25 26 27 27 26 24 22 21 19 18 16 15 13 12 11 10 8 6 5 4 3 3 2 1 2 1 1 2 2 3 5 6 8 9 11 12 14 15 17 18 20 22 23 24 25 27 29
37 37 36 36 37 37 37 39 40 41 41 41 40 40 41 38 34 34 36 36 36 34 31 29 31 30 29 31 33 32 30 27 25 25 26 26 26 27 27 28 28 28 26 24 23 21 19 17 16 14 12 11 10 9 8 6 5 4 2 2 1 2 3 3 3 3 3 4 5 6 8 9 11 12 14 15 17 18 19 21 22 24 25 27 29
36 36 35 36 36 37 38 39 39 40 39 39 39 39 39 37 35 35 36 37 36 33 30 31 32 30 30 32 33 32 30 28 26 27 27 26 26 27 28 29 29 28 27 25 23 22 20 18 16 14 12 11 10 9 8 7 6 4 3 2 2 3 4 4 3 3 3 4 5 6 8 9 11 12 14 15 16 18 19 20 22 24 25 26 27
34 34 34 35 36 37 37 38 38 38 38 38 38 38 39 40 38 37 37 37 35 32 31 32 32 30 30 32 33 33 31 29 28 28 28 28 28 29 30 29 29 28 27 25 24 23 21 19 16 14 12 12 11 11 9 7 6 5 4 3 4 5 5 5 4 3 3 4 5 6 7 9 11 12 13 15 16 18 19 20 22 24 24 25 25
32 32 33 34 35 35 36 36 37 37 37 37 37 38 40 40 39 39 38 36 34 32 32 32 32 31 31 32 33 33 31 30 30 30 29 28 28 29 30 29 27 26 24 23 23 22 20 18 15 13 11 11 10 9 8 8 7 7 6 6 6 7 8 7 6 5 4 4 5 6 7 9 10 12 14 15 17 19 20 21 22 23 24 25 25
30 30 31 33 33 34 34 35 35 35 35 35 36 38 39 39 39 40 39 36 33 32 33 33 32 32 32 33 34 34 33 31 31 31 30 29 29 30 29 27 25 23 21 21 21 20 17 16 14 12 9 8 8 7 8 9 9 8 7 8 9 10 10 9 8 7 6 5 5 6 7 9 11 13 14 16 18 19 21 22 22 23 24 25 26
28 29 30 32 33 33 33 34 34 35 35 35 35 36 37 38 40 40 38 35 33 33 34 34 34 33 33 33 33 34 34 32 32 32 30 30 31 32 30 26 23 22 21 21 19 17 16 15 14 12 9 8 9 10 11 11 10 9 10 10 11 12 12 11 10 9 8 6 6 6 7 8 10 12 14 16 18 19 21 22 23 23 23 25 26
Wind_Direction
191 187 186 186 184 185 186 187 189 189 189 195 199 198 197 196 196 198 202 205 205 204 206 206 208 213 213 207 203 203 205 206 208 210 213 214 214 218 222 225 232 242 252 260 271 282 287 290 294 297 301 305 307 308 310 311 313 315 315 313 311 311 309 309 311 315 318 323 321 301 290 283 275 273 273 274 282 293 299 302 302 302 302 301 302
190 186 185 184 184 186 188 189 190 187 188 195 198 197 197 199 200 202 202 203 205 208 209 207 209 213 209 203 202 203 203 206 209 208 212 216 214 218 224 235 247 254 260 268 275 282 286 287 290 293 297 301 305 309 313 315 317 318 320 319 317 316 313 312 314 318 320 319 318 307 291 286 277 266 269 276 284 297 304 307 309 310 310 309 308
189 187 185 184 185 188 190 191 190 188 189 194 198 198 199 199 201 200 199 200 204 208 208 205 206 208 207 204 203 203 201 205 209 207 211 218 219 224 234 247 256 262 269 276 281 284 286 286 288 290 294 299 304 309 312 316 318 318 318 318 317 318 317 317 318 322 323 321 321 316 300 297 274 249 267 288 292 301 308 313 318 321 322 320 316
188 187 186 186 187 189 192 192 190 189 192 196 199 202 201 200 200 198 198 200 201 202 202 202 202 203 205 205 205 204 203 204 205 206 213 220 226 235 246 254 259 267 275 281 285 288 288 288 288 291 295 301 307 310 312 316 316 315 316 315 316 318 318 319 320 322 324 324 326 322 312 312 285 270 294 305 306 315 322 329 335 336 337 333 329
189 187 188 188 188 191 193 193 191 191 195 198 199 203 204 203 201 199 198 197 196 197 197 198 200 200 202 202 201 202 203 203 205 212 218 224 232 242 252 259 265 273 278 282 285 288 289 289 291 297 304 309 312 313 314 316 315 314 315 316 318 320 320 321 322 324 329 333 337 341 334 329 325 324 328 333 330 334 344 351 350 346 346 344 342
193 189 188 189 190 192 195 195 195 195 198 199 198 202 204 204 202 198 197 195 195 195 194 197 199 200 201 201 202 202 201 203 209 218 226 232 240 249 258 266 273 277 277 278 281 284 287 289 296 305 312 314 313 314 315 316 316 315 317 320 321 321 323 325 326 329 335 342 351 4 5 349 337 337 340 340 340 351 1 2 1 358 357 355 351
196 190 188 189 191 194 195 197 198 198 201 200 198 201 203 203 200 196 196 195 194 194 193 196 198 201 204 206 209 208 206 209 215 221 230 240 248 256 264 273 281 283 278 274 274 278 281 287 300 311 315 316 315 315 317 318 317 318 322 324 327 329 331 333 336 339 343 353 6 7 0 351 347 347 347 345 344 344 350 2 10 9 4 2 1
194 192 190 189 192 195 195 197 201 202 202 200 198 199 200 201 198 195 196 195 193 192 193 196 200 201 204 208 210 210 214 222 224 225 232 242 251 260 272 283 290 289 279 270 266 268 274 286 306 316 316 314 314 316 318 320 321 324 330 335 341 344 345 348 354 358 359 7 16 12 5 359 353 352 353 352 346 340 342 351 3 11 11 4 2
196 196 194 191 191 192 194 197 202 204 202 200 198 198 198 198 197 196 196 194 192 192 193 196 202 205 206 208 208 207 215 225 230 231 235 243 254 268 283 290 290 281 270 263 261 263 270 291 309 310 309 309 313 317 319 322 327 333 342 347 351 352 357 6 12 18 21 26 31 28 24 15 5 359 356 358 355 349 347 347 350 358 6 7 4
200 199 196 194 192 193 195 196 199 202 202 200 197 197 197 197 197 198 196 193 193 192 194 197 201 206 208 209 210 211 217 224 229 233 238 248 261 276 285 283 273 261 252 246 242 248 260 281 295 297 302 307 312 317 321 328 335 342 350 353 355 359 8 16 20 26 30 35 36 30 25 19 11 6 5 6 5 0 356 352 351 353 357 3 5
200 198 195 195 195 197 199 198 200 203 202 199 197 196 197 198 198 198 196 194 193 193 195 198 200 204 209 212 215 219 225 230 234 239 247 256 265 276 280 267 241 226 225 222 218 224 246 271 285 293 300 306 313 321 330 337 343 350 357 1 4 9 18 20 21 29 32 33 31 24 20 20 16 14 14 10 6 3 359 355 353 353 355 360 2
197 196 193 194 198 202 203 200 201 203 203 200 198 198 199 199 198 197 195 193 194 194 195 198 198 201 208 214 218 225 233 239 242 247 253 260 268 275 273 250 218 206 209 211 211 215 238 263 278 291 302 312 321 331 338 344 353 1 8 14 18 22 27 25 25 34 35 30 28 27 23 21 21 22 18 10 6 4 358 353 353 353 353 355 358
192 194 193 193 197 203 203 200 199 202 204 201 198 199 199 198 197 195 194 192 193 192 192 194 196 200 206 211 217 224 232 239 242 246 252 261 270 274 265 237 211 201 202 206 208 212 230 254 277 294 309 321 328 334 343 354 5 16 23 27 29 34 37 30 28 33 33 29 29 28 24 22 24 25 18 9 6 1 354 353 355 354 352 352 355
191 192 193 193 195 198 200 198 196 198 203 201 197 197 197 196 196 195 193 190 189 188 189 192 195 199 203 208 215 223 230 236 240 244 251 260 269 266 246 220 204 197 199 204 208 217 233 251 279 298 313 322 324 337 351 7 17 25 33 31 30 38 40 33 31 33 34 36 32 27 25 26 26 21 12 6 3 1 358 356 354 352 350 351 354
193 191 193 195 196 196 198 197 194 196 202 201 196 195 195 195 195 194 192 190 190 191 192 193 195 197 202 208 216 224 231 235 237 240 246 254 261 251 224 207 200 198 199 205 211 220 233 249 271 287 300 305 312 354 10 23 26 28 34 29 29 38 39 36 36 38 40 39 34 31 28 25 23 16 10 7 4 2 3 2 358 355 353 351 351
195 192 191 194 196 195 197 198 195 197 202 201 195 193 193 194 195 197 197 194 193 195 194 194 197 199 204 212 220 226 230 232 232 234 238 241 244 235 220 208 201 201 202 207 211 215 229 244 255 257 243 240 268 38 31 30 27 31 34 30 33 39 35 37 42 44 46 43 37 34 28 23 22 16 9 7 6 5 5 5 5 3 360 355 351
195 192 189 191 192 192 195 198 198 198 200 200 197 194 194 196 197 197 199 196 194 195 195 196 200 204 210 217 224 227 229 230 230 233 236 238 236 228 221 212 205 205 206 207 209 215 229 236 233 219 199 181 132 83 51 43 31 39 43 36 40 41 34 42 52 53 52 46 37 32 26 24 23 16 9 6 6 6 7 7 7 7 4 359 353
193 191 188 189 190 189 191 197 200 200 199 198 196 194 196 200 200 198 198 198 196 196 198 200 204 210 216 221 224 225 226 227 226 229 237 242 241 233 222 213 208 207 205 206 212 220 224 220 208 188 176 170 160 153 79 46 31 44 51 45 49 48 40 54 61 58 56 48 36 31 28 25 22 14 8 7 6 6 7 8 7 5 2 360 356
190 188 187 187 188 189 191 195 198 199 199 197 194 194 197 200 200 198 200 201 200 200 203 207 210 215 220 223 225 223 221 222 221 225 234 238 241 241 226 212 208 206 204 209 216 215 208 195 183 169 160 162 162 155 110 41 31 43 55 55 60 58 51 61 65 62 59 50 38 34 29 25 22 16 10 7 7 7 7 7 6 5 360 355 354
188 187 188 187 188 191 193 193 194 196 200 198 194 194 197 199 197 196 200 203 204 205 209 213 215 218 222 222 222 220 218 220 221 225 232 235 241 244 226 211 207 206 207 211 210 201 189 175 166 159 152 149 148 145 134 77 33 52 69 69 69 68 62 65 67 66 62 51 39 33 29 26 23 15 10 7 6 6 7 7 6 5 1 352 350
185 186 189 190 189 190 192 193 191 193 197 196 194 194 197 199 199 199 203 205 207 209 212 215 217 220 223 222 219 218 219 221 222 226 230 235 242 237 219 209 207 207 207 205 198 185 173 166 160 156 151 146 141 141 136 124 57 58 78 79 72 72 70 70 71 68 63 53 39 32 28 26 21 13 8 5 4 5 5 7 6 4 3 356 348
184 184 187 188 186 184 187 190 189 192 196 195 195 197 199 201 200 202 206 208 210 212 213 216 218 220 222 222 221 221 221 223 224 227 231 236 236 223 209 206 207 206 199 187 185 179 169 166 164 161 158 154 153 152 144 132 79 47 70 83 82 79 76 74 73 67 60 51 40 33 29 24 18 10 7 4 3 5 4 4 4 1 359 357 350
184 182 183 183 183 184 187 188 189 196 198 195 195 198 200 201 202 204 207 208 210 214 215 217 218 219 220 220 222 222 222 223 225 228 231 230 221 209 202 206 207 202 189 176 176 176 173 172 170 169 167 164 165 162 149 136 98 54 63 80 88 89 84 76 70 62 54 48 40 34 29 23 16 9 7 7 6 6 6 3 2 358 353 350 349
183 182 182 180 182 187 191 191 192 197 198 194 193 194 196 201 206 207 208 208 211 215 217 219 218 218 219 219 221 222 221 223 223 224 224 216 206 201 200 204 203 196 186 179 177 177 177 177 176 176 175 171 171 166 156 144 117 74 66 78 90 92 86 75 64 54 46 41 37 32 26 20 14 10 8 9 9 8 7 4 359 356 351 346 345
180 179 179 179 183 189 191 193 196 198 196 194 193 193 196 201 205 207 208 210 213 217 218 219 219 219 219 219 220 220 219 219 217 215 210 202 200 201 201 199 198 195 187 183 182 180 178 178 178 179 179 176 173 166 161 151 124 88 65 75 85 83 79 72 57 46 39 33 29 25 22 17 11 10 9 9 9 7 4 1 357 353 351 347 345
178 178 179 182 186 189 188 191 197 197 195 194 195 197 198 200 202 206 210 212 214 216 218 220 221 219 218 216 215 213 211 209 206 202 198 197 199 202 201 197 194 193 188 184 182 181 178 175 177 179 177 175 171 164 163 161 132 90 66 70 70 61 71 77 58 42 34 26 20 16 15 14 10 9 10 9 6 3 359 357 354 351 349 346 344
182 180 181 183 186 188 186 188 195 198 198 198 200 201 200 199 202 207 211 213 215 217 219 220 219 216 213 211 208 205 202 200 197 194 194 198 201 202 203 199 192 187 186 185 184 182 178 174 177 179 174 169 168 167 170 172 139 90 71 67 57 47 60 68 55 40 28 17 12 9 9 11 11 11 11 7 1 357 355 353 352 350 348 345 343
183 182 183 184 185 187 187 188 193 198 201 201 201 201 199 200 205 209 211 214 217 220 221 220 216 212 209 207 204 201 198 195 193 193 196 200 201 201 201 199 191 185 185 186 183 182 180 177 178 175 169 168 172 177 179 174 138 98 77 54 42 44 52 55 48 35 20 10 5 4 5 8 11 10 6 1 358 354 351 351 351 349 347 345 342
182 185 186 187 188 189 190 193 195 196 200 201 200 200 200 202 208 213 213 216 219 221 221 218 214 211 207 205 203 198 195 194 194 195 199 202 203 202 200 197 191 186 186 186 182 181 181 180 177 172 169 172 174 177 175 160 129 101 86 39 25 40 47 50 50 31 10 0 357 359 4 8 9 6 359 355 355 352 350 350 349 349 347 345 343
185 188 190 191 192 193 194 197 197 196 198 200 200 200 201 204 211 214 214 217 221 221 221 218 214 211 207 206 203 196 193 194 195 198 201 204 204 203 199 195 192 190 189 188 184 182 179 178 177 174 174 174 172 172 169 153 132 109 87 34 23 37 44 51 58 33 360 349 351 356 3 8 5 358 352 351 351 351 351 351 349 349 349 347 347
188 190 191 192 193 194 195 198 199 199 199 200 201 202 202 206 212 215 215 219 222 221 221 218 214 210 209 208 203 196 193 194 196 199 202 204 206 206 201 197 196 195 193 190 186 183 181 179 178 177 176 174 170 166 159 149 136 122 93 50 29 30 40 46 45 19 343 340 349 358 5 6 360 352 348 348 349 350 352 352 351 353 353 352 351
190 191 192 194 195 195 197 198 199 201 201 202 204 204 203 207 213 215 216 219 221 220 220 218 212 211 211 210 203 196 194 195 198 200 203 206 209 210 206 202 201 200 196 191 187 185 184 181 178 178 177 172 168 162 153 152 143 124 100 60 27 20 30 32 16 350 332 336 348 0 7 2 355 350 347 347 349 351 352 354 354 355 356 357 356
192 194 195 197 199 199 199 199 200 203 204 206 208 207 206 210 214 215 217 220 220 221 221 217 212 212 213 209 202 197 196 197 200 203 206 208 210 211 209 206 204 202 197 193 189 187 186 183 178 177 177 170 163 157 152 152 149 134 113 81 27 14 10 359 347 336 332 341 350 356 358 356 353 349 346 347 349 350 353 356 357 356 358 0 360
194 197 198 199 200 199 199 200 202 205 207 208 210 211 210 212 213 214 219 222 221 221 221 216 212 214 214 207 201 198 198 199 201 204 207 208 211 212 209 207 206 203 198 194 191 188 186 184 177 173 173 168 160 158 157 151 144 140 133 109 27 359 341 322 324 327 336 347 352 346 345 351 353 349 346 347 348 350 353 357 358 358 360 2 3
197 199 200 200 200 198 198 200 203 206 207 208 210 211 210 210 211 213 218 222 221 221 219 214 212 214 211 205 200 199 199 200 203 206 207 209 212 213 210 206 204 201 197 193 191 189 186 182 174 168 168 166 162 160 158 147 136 132 132 126 27 324 309 306 317 328 337 344 343 334 336 347 351 349 347 347 348 350 354 356 358 360 1 4 5
201 201 202 202 202 202 202 203 205 206 208 210 211 211 210 209 209 212 217 221 220 219 217 214 213 213 209 204 201 200 201 203 205 207 208 211 214 214 212 208 202 196 194 192 189 187 185 179 171 167 167 168 167 162 153 143 136 129 126 128 131 291 295 305 320 330 334 334 329 325 334 346 349 348 348 348 348 350 353 355 358 1 2 3 6
204 205 206 205 205 205 204 204 205 207 210 212 212 212 212 210 210 213 218 221 221 220 218 215 214 213 208 204 202 202 203 205 207 209 210 213 216 216 214 211 204 197 192 190 188 185 181 177 171 166 166 169 167 159 149 143 141 135 127 121 121 250 281 299 316 325 326 326 328 329 337 346 350 351 350 349 349 352 355 356 358 0 1 2 5
206 206 206 206 206 206 205 205 206 208 211 213 214 215 214 212 213 216 218 221 222 221 219 216 213 213 210 206 204 204 205 207 209 211 212 215 217 216 215 212 206 199 194 190 189 185 177 173 169 164 165 168 165 156 149 146 144 138 124 106 97 119 270 289 304 313 321 331 334 334 341 349 353 354 352 351 351 354 356 357 358 359 359 1 4
209 209 209 208 208 208 208 208 208 209 210 212 214 217 217 216 217 219 219 221 223 223 221 216 214 214 213 209 205 205 207 209 211 213 214 216 216 214 213 209 204 201 198 193 189 186 179 171 167 166 164 163 161 156 150 148 143 133 117 102 95 98 105 119 249 285 331 337 330 339 351 357 358 357 355 353 354 356 358 359 358 357 358 1 3
210 210 211 211 210 210 209 209 209 209 210 212 213 216 218 219 218 218 219 221 223 223 220 216 214 215 214 211 207 207 209 211 213 214 213 214 215 211 207 204 200 198 197 193 187 184 179 170 167 169 166 162 160 156 151 147 143 131 118 109 102 100 103 106 114 124 129 299 343 2 7 5 3 1 357 355 357 358 359 359 358 358 359 360 1
214 213 213 212 212 213 213 212 211 211 211 212 213 215 219 221 219 218 221 223 224 222 218 215 215 216 214 211 209 209 210 212 214 215 215 214 213 209 204 201 198 195 193 191 185 180 176 172 170 170 166 161 158 155 150 148 145 137 125 111 101 99 102 103 107 123 146 107 25 21 15 10 6 3 359 357 358 359 359 360 360 0 360 358 358
215 215 215 214 213 213 213 212 211 211 212 214 214 215 218 222 223 224 226 226 224 222 219 217 217 217 215 213 211 210 211 213 214 216 217 214 210 208 203 199 196 193 190 188 185 179 175 174 173 170 166 162 157 154 152 151 148 144 132 113 104 106 112 109 114 132 133 40 28 23 17 11 8 5 0 358 358 358 359 360 1 1 359 358 359
214 214 216 215 213 213 212 211 211 212 213 215 216 216 217 221 226 228 227 225 222 221 220 219 219 218 216 213 212 210 212 214 215 215 216 212 208 205 201 197 195 192 189 187 184 180 178 177 177 174 169 163 158 155 155 153 149 143 133 116 109 120 139 112 106 115 27 19 19 19 16 11 8 6 2 359 358 357 358 359 360 360 359 360 1
215 216 215 214 213 213 211 211 212 212 213 216 218 218 217 219 226 230 226 222 221 221 220 219 220 219 216 214 213 212 212 213 214 215 212 208 206 204 200 196 193 191 188 187 185 183 182 181 180 177 173 167 162 159 157 157 153 146 137 122 114 136 208 228 268 320 349 5 9 11 11 9 8 7 3 360 358 356 357 358 358 358 360 2 4
215 215 215 214 213 213 211 211 211 212 214 215 218 220 220 219 222 228 226 221 220 221 220 220 221 219 215 214 213 213 212 212 213 213 210 205 203 202 198 193 190 188 189 189 188 187 186 185 183 181 177 173 169 165 164 165 165 161 149 132 133 210 254 272 293 316 339 351 357 3 6 7 6 7 5 1 358 357 357 357 357 358 360 3 6
213 213 213 212 212 213 212 211 211 212 213 215 217 222 223 222 224 229 228 224 222 221 220 220 220 216 212 212 212 211 211 211 212 212 210 206 205 203 197 191 188 188 190 191 191 191 191 191 189 185 182 182 181 177 175 178 182 183 176 160 186 258 273 284 291 302 324 338 345 354 2 4 4 5 5 3 0 359 357 356 357 359 0 4 8
213 213 212 210 210 211 211 211 210 211 212 214 218 222 224 223 225 229 228 225 223 222 220 219 217 213 211 211 212 211 209 209 210 211 210 208 207 205 201 196 193 192 192 193 194 196 197 197 194 191 191 193 194 192 189 192 196 200 207 221 243 261 269 275 279 287 305 324 335 347 357 3 4 3 4 4 2 360 358 357 358 359 0 4 9
212 212 211 210 210 211 212 212 212 212 213 215 218 221 221 220 222 226 226 223 222 221 220 218 215 212 211 211 212 212 211 209 210 211 211 209 207 206 206 204 202 200 199 198 198 201 203 202 199 198 201 203 207 207 202 202 208 214 225 243 251 258 266 271 274 280 296 316 331 342 353 2 5 3 4 4 4 3 1 359 358 357 358 2 6
211 211 211 211 212 212 214 215 215 216 216 217 219 221 220 218 221 225 225 223 221 221 219 217 215 212 211 211 211 213 212 211 210 211 212 213 211 209 208 207 206 206 206 205 205 206 207 206 204 207 212 217 221 220 213 214 221 225 231 242 251 256 260 263 265 271 289 315 329 339 348 359 4 4 4 6 6 6 6 4 0 358 357 360 4
210 210 210 211 213 215 216 217 217 218 219 219 220 222 222 221 222 226 225 223 222 221 219 216 215 213 211 210 211 213 213 212 212 210 210 212 212 211 210 209 208 208 206 204 206 207 209 211 212 216 223 229 232 230 224 225 230 234 239 245 249 253 257 261 263 268 282 302 320 333 344 356 2 2 3 5 5 6 6 5 4 1 358 359 3
213 210 209 210 212 215 217 218 218 218 219 220 220 222 224 224 225 226 225 223 223 224 221 217 214 213 212 211 212 214 214 213 213 211 210 211 209 208 209 210 210 206 200 198 201 205 210 216 221 224 233 242 241 236 234 234 236 240 244 248 251 253 256 260 263 268 278 290 305 323 337 350 359 0 360 1 2 3 4 4 4 2 360 360 1